• In Hungary
  • List of Countries
  • For 7 days
  • Water Temperature
  • Satellite Maps
  • Weather Map
  • News
  • Weather Widgets
  • user-avatar
    Login

    Hourly Weather Telavi

    Today, 18 September, Tuesday

    Time Temperature Precipitation Wind Pressure Humidity
    00:00 +17°C° 0 mm 2 mps 710 mmHg 73%
    01:00 +16°C° 0 mm 2 mps 710 mmHg 74%
    02:00 +16°C° 0 mm 2 mps 710 mmHg 75%
    03:00 +16°C° 0 mm 1 mps 710 mmHg 76%
    04:00 +15°C° 0 mm 1 mps 710 mmHg 75%
    05:00 +15°C° 0 mm 1 mps 710 mmHg 75%
    06:00 +15°C° 0 mm 1 mps 710 mmHg 75%
    07:00 +18°C° 0 mm 1 mps 711 mmHg 66%
    08:00 +20°C° 0 mm 1 mps 711 mmHg 58%
    09:00 +23°C° 0 mm 1 mps 712 mmHg 49%
    10:00 +24°C° 0 mm 1 mps 711 mmHg 46%
    11:00 +25°C° 0 mm 1 mps 711 mmHg 42%
    12:00 +26°C° 0 mm 1 mps 711 mmHg 39%
    13:00 +26°C° 0 mm 2 mps 711 mmHg 38%
    14:00 +27°C° 0 mm 2 mps 711 mmHg 37%
    15:00 +27°C° 0 mm 2 mps 711 mmHg 36%
    16:00 +25°C° 0.1 mm 2 mps 711 mmHg 42%
    17:00 +24°C° 0.1 mm 2 mps 711 mmHg 47%
    18:00 +21°C° 0.1 mm 2 mps 711 mmHg 52%
    19:00 +20°C° 0.4 mm 2 mps 711 mmHg 57%
    20:00 +19°C° 0.4 mm 2 mps 711 mmHg 62%
    21:00 +18°C° 0.4 mm 2 mps 712 mmHg 67%
    22:00 +18°C° 0.3 mm 2 mps 712 mmHg 69%
    23:00 +17°C° 0.3 mm 2 mps 712 mmHg 70%

    Tomorrow, 19 September, Wednesday

    Time Temperature Precipitation Wind Pressure Humidity
    00:00 +18°C° 0.3 mm 1 mps 712 mmHg 72%
    01:00 +18°C° 0.3 mm 1 mps 712 mmHg 73%
    02:00 +18°C° 0.3 mm 1 mps 712 mmHg 74%
    03:00 +16°C° 0.3 mm 1 mps 712 mmHg 75%
    04:00 +16°C° 0.1 mm 1 mps 712 mmHg 75%
    05:00 +16°C° 0.1 mm 1 mps 712 mmHg 75%
    06:00 +16°C° 0.1 mm 1 mps 712 mmHg 76%
    07:00 +18°C° 0 mm 1 mps 712 mmHg 72%
    08:00 +19°C° 0 mm 1 mps 712 mmHg 68%
    09:00 +20°C° 0 mm 1 mps 712 mmHg 64%
    10:00 +21°C° 0 mm 1 mps 712 mmHg 60%
    11:00 +22°C° 0 mm 1 mps 712 mmHg 56%
    12:00 +24°C° 0 mm 1 mps 712 mmHg 52%
    13:00 +24°C° 0 mm 1 mps 712 mmHg 50%
    14:00 +25°C° 0 mm 2 mps 712 mmHg 48%
    15:00 +25°C° 0 mm 2 mps 711 mmHg 46%
    16:00 +24°C° 0 mm 2 mps 711 mmHg 50%
    17:00 +23°C° 0 mm 2 mps 711 mmHg 55%
    18:00 +20°C° 0 mm 2 mps 711 mmHg 59%
    19:00 +20°C° 0 mm 1 mps 712 mmHg 62%
    20:00 +20°C° 0 mm 1 mps 712 mmHg 66%
    21:00 +19°C° 0 mm 1 mps 712 mmHg 69%
    22:00 +18°C° 0 mm 1 mps 712 mmHg 70%
    23:00 +18°C° 0 mm 1 mps 712 mmHg 71%

    Day after tomorrow, 20 September, Thursday

    Time Temperature Precipitation Wind Pressure Humidity
    00:00 +18°C° 0 mm 1 mps 713 mmHg 72%
    01:00 +18°C° 0.1 mm 1 mps 712 mmHg 73%
    02:00 +16°C° 0.1 mm 1 mps 712 mmHg 74%
    03:00 +16°C° 0.1 mm 1 mps 712 mmHg 74%
    04:00 +16°C° 0.1 mm 1 mps 712 mmHg 75%
    05:00 +16°C° 0.1 mm 1 mps 712 mmHg 75%
    06:00 +15°C° 0.1 mm 1 mps 712 mmHg 76%
    07:00 +18°C° 0 mm 1 mps 712 mmHg 72%
    08:00 +19°C° 0 mm 1 mps 713 mmHg 68%
    09:00 +20°C° 0 mm 1 mps 713 mmHg 65%
    10:00 +21°C° 0 mm 2 mps 713 mmHg 59%
    11:00 +23°C° 0 mm 2 mps 712 mmHg 54%
    12:00 +24°C° 0 mm 3 mps 712 mmHg 49%
    13:00 +25°C° 0 mm 3 mps 712 mmHg 48%
    14:00 +25°C° 0 mm 3 mps 712 mmHg 46%
    15:00 +26°C° 0 mm 3 mps 712 mmHg 44%
    16:00 +24°C° 0 mm 3 mps 712 mmHg 49%
    17:00 +23°C° 0 mm 2 mps 712 mmHg 54%
    18:00 +20°C° 0 mm 2 mps 712 mmHg 60%
    19:00 +19°C° 0 mm 2 mps 712 mmHg 63%
    20:00 +20°C° 0 mm 1 mps 712 mmHg 66%
    21:00 +19°C° 0 mm 1 mps 712 mmHg 69%
    22:00 +18°C° 0 mm 1 mps 712 mmHg 70%
    23:00 +18°C° 0 mm 1 mps 712 mmHg 71%

    21 September, Friday

    Time Temperature Precipitation Wind Pressure Humidity
    00:00 +18°C° 0 mm 1 mps 712 mmHg 72%
    01:00 +18°C° 0 mm 1 mps 712 mmHg 73%
    02:00 +16°C° 0 mm 1 mps 712 mmHg 75%
    03:00 +16°C° 0 mm 1 mps 711 mmHg 76%
    04:00 +16°C° 0 mm 1 mps 711 mmHg 76%
    05:00 +15°C° 0 mm 1 mps 711 mmHg 77%
    06:00 +14°C° 0 mm 0 mps 711 mmHg 77%
    07:00 +16°C° 0 mm 0 mps 711 mmHg 71%
    08:00 +19°C° 0 mm 1 mps 711 mmHg 64%
    09:00 +21°C° 0 mm 1 mps 712 mmHg 58%
    10:00 +22°C° 0 mm 1 mps 711 mmHg 53%
    11:00 +24°C° 0 mm 1 mps 711 mmHg 48%
    12:00 +25°C° 0 mm 2 mps 711 mmHg 43%
    13:00 +26°C° 0 mm 2 mps 710 mmHg 42%
    14:00 +26°C° 0 mm 2 mps 710 mmHg 40%
    15:00 +27°C° 0 mm 2 mps 710 mmHg 38%
    16:00 +25°C° 0 mm 2 mps 710 mmHg 42%
    17:00 +24°C° 0 mm 2 mps 710 mmHg 47%
    18:00 +22°C° 0 mm 1 mps 710 mmHg 51%
    19:00 +21°C° 0 mm 1 mps 710 mmHg 54%
    20:00 +20°C° 0 mm 1 mps 711 mmHg 57%
    21:00 +20°C° 0 mm 1 mps 711 mmHg 60%
    22:00 +19°C° 0 mm 1 mps 711 mmHg 62%
    23:00 +19°C° 0 mm 1 mps 711 mmHg 63%

    22 September, Saturday

    Time Temperature Precipitation Wind Pressure Humidity
    00:00 +18°C° 0 mm 1 mps 711 mmHg 65%
    01:00 +18°C° 0 mm 1 mps 711 mmHg 66%
    02:00 +16°C° 0 mm 1 mps 710 mmHg 66%
    03:00 +16°C° 0 mm 1 mps 710 mmHg 67%
    04:00 +16°C° 0 mm 1 mps 710 mmHg 68%
    05:00 +16°C° 0 mm 1 mps 710 mmHg 68%
    06:00 +15°C° 0 mm 1 mps 710 mmHg 68%
    07:00 +19°C° 0 mm 1 mps 710 mmHg 62%
    08:00 +21°C° 0 mm 1 mps 710 mmHg 55%
    09:00 +23°C° 0 mm 1 mps 710 mmHg 49%
    10:00 +24°C° 0 mm 1 mps 710 mmHg 46%
    11:00 +25°C° 0 mm 2 mps 710 mmHg 43%
    12:00 +27°C° 0 mm 2 mps 710 mmHg 40%
    13:00 +27°C° 0 mm 2 mps 709 mmHg 39%
    14:00 +28°C° 0 mm 3 mps 709 mmHg 38%
    15:00 +28°C° 0 mm 3 mps 709 mmHg 36%
    16:00 +27°C° 0 mm 2 mps 709 mmHg 41%
    17:00 +25°C° 0 mm 2 mps 709 mmHg 45%
    18:00 +23°C° 0 mm 1 mps 709 mmHg 50%
    19:00 +23°C° 0 mm 1 mps 709 mmHg 52%
    20:00 +22°C° 0 mm 1 mps 709 mmHg 55%
    21:00 +21°C° 0 mm 1 mps 710 mmHg 58%
    22:00 +21°C° 0.3 mm 1 mps 709 mmHg 58%
    23:00 +20°C° 0.3 mm 1 mps 709 mmHg 59%

    23 September, Sunday

    Time Temperature Precipitation Wind Pressure Humidity
    00:00 +19°C° 0.3 mm 2 mps 709 mmHg 59%
    01:00 +19°C° 0.3 mm 2 mps 709 mmHg 59%
    02:00 +20°C° 0.3 mm 1 mps 709 mmHg 58%
    03:00 +20°C° 0.3 mm 1 mps 709 mmHg 58%
    04:00 +19°C° 0.1 mm 1 mps 709 mmHg 60%
    05:00 +19°C° 0.1 mm 1 mps 709 mmHg 61%
    06:00 +19°C° 0.1 mm 1 mps 709 mmHg 63%
    07:00 +20°C° 0 mm 1 mps 709 mmHg 61%
    08:00 +21°C° 0 mm 1 mps 708 mmHg 58%
    09:00 +22°C° 0 mm 1 mps 708 mmHg 56%
    10:00 +23°C° 0 mm 1 mps 708 mmHg 53%
    11:00 +25°C° 0 mm 1 mps 708 mmHg 50%
    12:00 +26°C° 0 mm 2 mps 708 mmHg 47%
    13:00 +27°C° 0 mm 2 mps 707 mmHg 45%
    14:00 +27°C° 0 mm 2 mps 707 mmHg 43%
    15:00 +28°C° 0 mm 2 mps 707 mmHg 41%
    16:00 +26°C° 0 mm 2 mps 707 mmHg 45%
    17:00 +25°C° 0 mm 1 mps 707 mmHg 49%
    18:00 +23°C° 0 mm 1 mps 707 mmHg 53%
    19:00 +23°C° 0 mm 1 mps 707 mmHg 56%
    20:00 +22°C° 0 mm 1 mps 707 mmHg 58%
    21:00 +21°C° 0 mm 1 mps 707 mmHg 60%
    22:00 +21°C° 0 mm 1 mps 707 mmHg 61%
    23:00 +20°C° 0 mm 1 mps 707 mmHg 61%
    Show more